{"data":{"norad_id":67544,"intl_designator":"2026-014N","name":"STARLINK-36565","alt_names":[],"object_type":"PAYLOAD","status":"ACTIVE","operator":null,"country":"US","launch_date":"2026-01-22","launch_site_code":"AFWTR","launch_vehicle":null,"mission":null,"orbit_class":"UNKNOWN","rcs_meters":null,"size_class":null,"mass_kg":null,"dimensions":null,"purposes":["comms"],"wikipedia_slug":null,"has_3d_model":false,"image_url":null,"decayed_at":null,"tle_current":{"epoch":"2026-05-25T02:32:26.305728Z","epoch_age_seconds":59281,"freshness":"FRESH","line1":"1 67544U 26014N   26145.10586002  .00018462  00000+0  57273-3 0  9996","line2":"2 67544  97.2866  32.1411 0001481  90.0909 270.0503 15.33447524 20499","mean_motion":15.33447524,"eccentricity":0.0001481,"inclination_deg":97.2866,"raan_deg":32.1411,"arg_perigee_deg":90.0909,"mean_anomaly_deg":270.0503,"bstar":0.00057273,"rev_number":2049,"period_min":93.906050090567,"perigee_km":464.52211691855,"apogee_km":466.54921276188,"semimajor_km":6843.6726648402,"source":"CELESTRAK","updated_at":"2026-05-25T13:38:21.609123Z"}}}